Location: Buchdorf
(48.7842°N, 10.8275°E)
Time: 08:09:07
(UTC+00:00)

STARLINK-1244 - Pass Details

Date: 09 April 2020
Orbit: 549 x 550 km, 53.0° (Epoch: 07 June)

Event Time Altitude Azimuth Distance (km) Brightness Sun altitude
Rises 19:57:50 0° 295° (WNW) 2,725 8.7 -18.3°
Reaches altitude 10° 20:00:05 10° 292° (WNW) 1,828 7.4 -18.6°
Maximum altitude 20:04:12 67° 211° (SSW) 600 3.7 -19.2°
Enters shadow 20:05:06 50° 152° (SSE) 708 3.7 -19.3°
